Theta_e
321 316 310 305 294 291 288 291 290 289 290 294 296 294 294 295 295 288 306 311 316 317 324 326 329 329 330 327 331 331 330 330 330 330 328 328 327 327 327 328 327 328 329 332 334 339 339 343 342
318 314 306 296 289 285 287 290 289 290 294 294 293 292 295 294 300 303 307 313 318 321 320 322 330 326 330 329 330 329 328 328 327 327 325 325 326 326 326 327 326 326 329 331 335 337 338 341 341
313 311 299 291 285 285 286 289 289 290 294 290 291 294 295 295 303 306 307 316 317 317 318 323 327 327 329 330 328 329 327 326 325 324 324 324 324 324 324 325 325 325 327 330 334 336 337 339 340
307 300 296 289 285 288 289 290 290 291 289 292 293 291 295 298 307 308 314 314 312 311 315 325 328 328 329 327 326 327 325 322 322 322 322 323 323 323 323 324 323 323 326 329 333 334 336 337 337
301 295 287 284 284 288 290 291 290 289 289 288 290 290 293 301 307 312 312 312 311 312 316 324 327 328 329 327 327 325 322 321 321 321 322 322 321 321 321 322 322 323 325 329 332 335 335 334 334
296 293 284 282 285 288 291 290 290 288 288 289 292 294 293 302 310 309 310 310 313 313 315 321 325 327 326 325 324 322 319 319 319 320 320 320 320 320 320 320 322 322 324 329 331 332 332 331 331
293 289 284 283 285 288 290 291 289 289 288 288 294 290 291 301 308 310 310 311 312 312 314 319 321 323 323 321 320 317 316 316 315 316 316 316 317 318 319 319 321 323 324 325 327 328 328 328 327
296 292 286 286 285 287 290 290 290 289 287 290 291 290 291 304 308 309 309 308 309 309 311 315 313 313 311 310 315 314 313 312 311 312 311 309 308 313 317 318 320 321 322 322 322 323 324 324 324
296 289 285 286 288 288 289 289 289 290 291 290 293 292 295 308 308 306 306 304 305 307 307 308 310 309 306 304 307 307 311 310 308 305 305 300 297 300 305 318 318 318 319 319 316 316 315 314 317
291 286 287 291 290 289 291 290 290 289 289 289 292 299 306 308 308 305 304 303 302 303 304 305 304 303 302 302 296 294 296 294 294 294 293 294 295 302 302 308 314 315 315 313 311 312 310 303 299
290 286 290 292 292 292 291 290 290 289 287 290 291 298 305 306 306 305 304 304 304 303 304 304 303 302 299 296 293 293 293 292 292 292 292 291 292 293 293 293 292 292 298 291 293 293 294 295 298
289 291 293 293 291 290 289 290 288 288 289 290 293 303 305 306 305 304 303 302 302 303 303 303 303 299 296 295 293 292 292 292 291 291 292 290 291 291 291 291 291 290 290 289 290 291 293 295 296
289 290 292 291 289 288 290 288 287 288 289 293 300 304 304 305 305 304 305 304 303 302 302 302 301 297 296 293 292 292 292 292 291 291 292 291 291 291 291 291 290 290 290 289 290 291 292 293 295
290 290 289 289 289 290 288 288 289 288 292 297 300 300 301 303 303 301 303 302 303 303 302 302 300 297 295 293 292 292 291 291 291 291 291 292 291 291 291 291 291 290 290 290 290 290 292 291 293
291 287 289 287 288 289 289 288 288 288 293 296 297 298 299 300 301 303 304 303 304 303 302 301 299 296 294 293 293 292 292 292 291 291 291 292 292 291 291 291 291 291 291 291 290 290 292 292 292
288 287 284 287 289 289 288 283 286 287 291 292 295 296 298 299 301 301 304 304 303 301 301 301 301 296 294 293 293 293 292 291 291 291 291 292 292 292 291 291 291 292 291 290 289 289 290 289 290
285 280 282 286 290 288 286 284 285 287 288 289 291 293 296 297 299 300 302 303 302 302 300 299 297 295 294 293 293 292 291 290 290 290 290 292 293 292 291 291 291 292 290 289 290 288 288 288 288
281 282 282 283 287 288 285 286 287 287 287 287 288 289 292 295 298 300 301 301 301 300 299 298 296 294 293 293 292 291 290 290 290 290 291 292 292 292 291 290 291 291 290 289 289 288 287 287 288
284 283 282 283 286 286 285 285 287 288 286 286 285 286 288 292 295 299 300 300 298 296 296 296 294 293 293 291 290 289 289 289 289 290 292 291 291 292 290 290 290 290 289 288 288 288 288 287 287
284 282 282 283 286 284 283 284 286 286 285 285 287 286 287 287 291 296 298 298 298 296 296 295 295 294 294 293 291 291 290 289 289 290 291 292 291 291 291 290 289 289 289 288 288 287 287 286 286
282 282 281 281 283 283 281 281 280 283 284 286 285 286 287 288 288 293 295 297 296 295 293 295 295 294 294 293 292 291 291 290 289 289 289 290 291 291 290 290 289 288 288 288 287 287 287 285 285
281 284 283 283 279 276 280 275 279 280 282 283 282 284 285 286 288 292 294 294 295 295 294 294 294 294 294 293 292 291 290 288 289 289 289 290 290 290 290 289 289 288 288 288 287 288 286 286 285
282 285 283 281 277 274 277 272 280 281 281 281 283 283 284 285 289 292 293 295 294 293 292 292 293 294 294 293 293 291 289 289 289 288 288 288 288 289 289 289 288 288 287 287 287 286 286 286 285
286 283 282 279 276 268 272 274 277 279 279 280 282 283 285 285 288 291 292 293 292 291 291 291 292 293 293 293 292 291 290 289 288 287 287 287 287 288 288 288 287 287 286 286 285 285 285 285 284
283 280 272 270 268 271 274 273 279 279 280 281 282 283 285 285 285 288 290 291 291 291 290 291 292 291 292 292 292 291 291 290 289 288 287 286 286 286 287 287 286 286 286 286 286 285 284 284 283
280 279 274 267 269 273 276 273 279 280 281 282 284 283 285 286 286 286 288 289 290 291 290 291 291 291 292 292 292 291 291 290 290 289 288 287 287 287 287 287 286 286 286 286 285 284 284 283 283
281 278 279 270 267 268 274 275 277 280 280 281 282 284 284 285 286 287 288 288 289 289 290 290 290 291 291 292 292 291 291 291 291 289 289 288 287 289 287 287 286 286 286 286 285 284 283 283 283
282 282 277 273 265 267 271 272 275 277 279 281 280 281 282 283 284 285 286 288 290 290 290 290 290 291 291 291 292 292 291 291 291 290 289 288 288 288 287 286 286 286 286 285 285 284 284 283 282
279 274 277 277 273 267 266 273 278 278 280 280 280 281 282 283 284 284 285 286 288 289 290 290 290 290 290 291 291 292 292 292 291 291 290 289 288 288 288 287 286 287 286 285 284 284 284 283 283
279 279 278 274 269 267 267 272 278 275 275 276 279 282 282 283 284 284 283 284 285 286 287 288 289 290 290 290 290 290 291 290 290 289 289 289 288 288 288 287 287 287 287 286 285 284 284 283 283
Wind_Speed
2 3 3 5 5 5 1 3 1 2 2 3 3 2 5 4 2 3 4 2 7 6 6 9 11 10 8 9 8 10 12 9 10 11 10 10 9 10 10 11 12 11 10 10 8 11 10 16 18
2 2 5 3 6 3 5 3 4 3 5 6 5 2 5 2 1 4 4 2 6 6 6 6 11 10 8 9 10 12 11 9 9 9 8 9 10 9 10 11 12 12 10 9 9 11 11 16 17
3 4 4 5 4 4 4 3 3 3 7 2 5 5 2 1 2 7 2 7 6 6 7 5 11 8 9 10 11 10 12 9 9 9 9 9 10 10 10 10 12 11 10 8 10 12 13 16 16
3 5 5 5 3 4 3 3 4 6 1 3 4 7 2 2 7 4 8 8 8 7 7 8 11 9 10 11 7 10 11 8 8 9 9 10 10 10 10 11 12 11 10 8 12 13 15 19 17
5 3 4 3 3 3 2 3 6 4 4 2 1 5 3 2 2 9 8 8 9 7 6 6 11 9 11 11 11 11 9 8 9 9 9 10 10 10 10 11 11 11 11 11 13 16 18 18 19
4 3 4 2 4 2 0 5 5 3 2 2 5 5 3 3 9 6 8 7 7 8 7 5 8 10 12 12 11 10 8 9 8 10 10 10 10 10 11 11 11 12 12 14 14 16 17 17 16
6 4 3 4 3 1 4 6 5 5 5 3 8 6 0 2 5 7 7 7 7 6 7 6 6 10 14 13 9 9 9 10 10 10 9 10 11 10 11 11 11 13 13 14 14 16 15 16 17
5 5 3 3 3 4 4 4 3 3 3 3 2 5 5 6 7 8 7 7 7 6 6 8 7 7 9 7 8 7 8 9 10 9 10 9 10 10 10 9 13 12 15 13 14 14 16 17 19
3 5 2 4 6 3 2 3 1 2 7 1 1 2 0 16 11 9 7 4 5 5 5 6 7 8 8 7 7 8 10 11 10 8 9 7 4 6 10 10 13 13 13 15 14 13 13 16 19
5 4 8 4 3 3 4 3 7 4 4 2 2 5 12 15 14 13 9 8 4 5 4 5 7 7 7 5 6 6 6 4 4 4 5 4 5 5 7 13 17 15 16 16 17 17 17 13 6
2 4 3 3 2 1 2 3 3 6 4 7 8 9 14 16 12 12 9 10 7 5 4 5 7 6 7 5 3 3 3 3 3 5 4 5 4 5 4 4 4 5 11 4 7 7 6 9 6
1 2 3 1 1 2 1 2 1 5 2 2 5 17 16 18 15 13 11 7 8 7 6 6 6 6 6 4 3 3 3 2 3 3 4 4 3 4 4 4 5 5 3 6 5 4 6 9 10
2 2 2 1 1 1 1 1 3 5 1 5 12 14 15 15 12 7 8 6 7 7 6 6 6 6 5 5 3 3 3 3 3 3 4 4 4 4 4 4 4 4 4 4 5 6 6 8 9
2 2 1 0 1 1 0 1 1 1 4 7 11 11 11 13 13 7 8 8 9 7 7 7 6 6 6 4 4 3 3 3 3 3 3 5 4 4 4 4 4 5 4 4 5 5 6 6 7
3 1 2 2 1 0 1 4 7 2 5 7 7 7 8 9 9 15 14 12 12 8 7 8 7 6 6 6 5 3 3 3 3 3 4 5 4 5 5 4 4 4 4 6 5 6 6 8 8
3 4 2 1 3 0 3 7 1 3 8 8 7 7 8 8 11 7 9 11 10 8 10 7 7 7 6 6 4 3 3 3 3 3 3 4 5 6 5 4 4 4 4 4 5 5 7 7 7
5 2 4 3 4 2 3 6 1 3 5 7 8 8 8 7 7 7 9 11 12 11 10 9 8 8 7 6 5 4 4 3 3 3 3 4 4 5 5 4 4 5 4 4 5 4 4 7 6
6 4 4 3 2 0 1 10 6 3 6 8 8 8 8 9 11 9 10 9 10 9 9 9 7 8 7 5 5 4 4 3 2 2 2 4 3 5 5 4 5 4 4 4 4 5 5 4 6
5 3 2 2 1 2 5 8 12 6 5 7 8 8 9 10 6 8 8 8 8 7 9 10 9 7 7 3 4 3 3 2 2 2 3 4 3 4 5 4 5 4 5 5 5 4 7 3 2
2 2 4 1 1 1 4 12 8 4 2 3 7 9 9 4 6 7 9 9 11 11 10 9 9 10 7 4 3 3 3 2 2 1 3 3 4 4 4 5 4 5 5 5 4 3 3 2 2
3 5 4 3 2 3 4 8 3 3 3 7 7 5 6 9 9 7 9 10 8 11 11 12 10 10 7 7 5 4 4 3 2 1 1 1 3 3 4 4 4 5 3 4 4 3 3 3 2
4 1 3 4 5 4 3 6 5 2 3 7 9 9 6 5 5 6 8 8 10 9 8 8 9 9 7 8 6 6 5 4 3 3 2 2 3 4 4 5 4 4 3 4 3 3 2 3 3
2 4 5 3 5 4 2 5 9 3 2 5 9 9 8 4 5 6 6 5 4 6 8 7 8 7 7 8 7 6 4 3 3 2 4 2 2 3 4 5 5 5 4 3 4 3 3 1 3
7 6 7 5 4 3 4 5 8 1 2 4 5 7 8 6 6 6 5 7 6 5 6 6 7 6 7 7 7 8 8 6 4 3 4 3 2 2 3 4 4 4 5 5 4 4 4 3 3
4 6 3 6 4 7 2 3 9 1 1 0 4 7 7 6 6 5 5 5 6 7 7 6 7 7 7 7 7 7 8 8 8 6 5 5 3 3 4 4 4 3 4 5 5 5 5 4 4
3 5 7 8 4 2 3 6 6 3 3 3 3 3 6 8 6 6 4 3 4 6 6 7 7 6 7 7 8 6 7 5 4 6 4 4 4 4 5 4 4 4 5 4 4 3 4 5 5
4 3 3 9 2 4 3 6 2 3 3 4 5 7 8 8 8 8 7 5 2 2 4 6 6 6 7 7 6 7 6 7 7 7 6 5 4 4 6 6 6 6 6 6 5 3 4 5 4
3 3 4 3 3 4 4 5 6 5 6 4 5 6 6 6 8 7 7 7 5 3 1 3 4 6 5 5 6 6 7 6 6 6 7 7 6 6 7 6 6 6 6 6 6 4 5 6 3
2 2 4 4 4 6 2 7 3 4 7 8 6 4 5 6 6 6 6 6 5 5 5 1 2 4 4 4 4 6 5 6 6 6 6 7 6 7 7 7 7 7 6 6 6 6 6 7 5
1 4 4 5 6 2 4 8 2 1 3 5 4 3 3 4 5 6 6 7 7 6 6 5 4 2 3 4 5 6 5 6 6 6 7 7 8 7 8 8 7 7 6 6 7 8 7 7 6
Wind_Direction
69 89 86 45 58 61 268 258 8 153 118 331 58 107 143 64 124 195 320 188 139 145 145 140 129 131 118 121 90 91 77 72 69 64 62 67 65 64 64 63 64 61 61 55 54 61 63 76 74
103 111 51 77 85 68 268 259 212 159 141 128 72 65 48 79 79 107 105 235 136 137 118 118 131 131 120 117 94 80 87 71 68 68 73 68 69 66 65 62 65 61 60 52 52 60 61 75 83
121 45 84 94 107 173 211 215 152 83 141 114 101 55 96 115 11 154 187 141 117 127 107 136 136 129 115 107 97 95 87 76 77 74 75 73 68 65 68 65 65 64 66 45 59 64 68 68 68
93 14 35 85 209 238 204 172 133 120 156 74 125 73 54 294 158 185 132 127 111 106 129 145 131 121 105 104 97 94 91 91 88 81 77 71 70 69 70 67 68 70 79 77 71 68 58 58 63
43 57 65 78 262 268 250 162 152 133 118 80 137 148 80 10 98 128 127 125 122 120 135 129 122 120 106 102 91 87 89 91 82 79 76 75 74 75 75 73 73 76 82 84 73 73 67 57 55
51 91 66 206 251 268 137 154 139 103 104 145 80 107 147 305 134 143 127 124 125 129 111 101 124 114 103 88 81 83 85 80 77 78 73 77 78 79 81 82 74 79 85 83 71 72 70 70 69
114 89 194 181 245 277 193 146 148 151 137 220 152 116 84 144 150 131 123 117 115 122 105 76 60 98 97 83 81 91 84 80 77 80 83 70 67 79 82 88 86 79 84 83 77 69 73 74 70
105 93 123 253 196 250 165 128 109 123 163 123 164 179 196 190 147 106 91 95 98 91 101 98 75 79 73 62 91 89 79 84 80 78 64 57 42 40 58 56 82 81 78 78 80 77 74 73 65
131 67 187 227 162 227 163 129 66 112 113 133 27 136 92 136 129 114 110 75 82 71 89 99 96 84 82 74 53 48 69 71 65 62 65 47 31 28 20 69 83 85 87 81 80 80 74 65 59
88 116 216 206 193 209 157 159 164 139 125 209 120 15 124 136 150 146 148 146 132 131 106 111 105 100 94 83 67 60 61 57 58 64 59 47 39 45 51 51 56 66 78 84 78 77 69 58 48
158 184 211 227 181 189 153 127 165 131 210 203 194 159 152 150 156 157 156 162 159 144 125 134 116 114 111 101 87 69 67 70 60 65 67 61 57 46 45 49 45 45 68 47 54 51 50 53 51
151 219 185 151 112 109 189 115 195 187 202 333 174 159 153 163 168 165 162 151 148 151 144 137 125 123 117 107 97 102 93 82 80 72 77 82 68 62 61 66 62 65 51 69 58 58 58 58 55
180 179 98 38 91 105 72 234 240 248 91 77 123 150 160 163 165 156 157 142 144 153 152 156 143 138 133 118 114 103 92 95 93 80 81 93 94 87 82 74 71 68 67 68 66 63 62 60 60
146 112 90 23 349 14 151 280 104 21 107 114 146 156 159 165 162 137 154 159 168 154 163 155 155 145 140 135 134 125 111 108 90 85 97 98 107 104 92 84 77 70 70 65 70 71 74 64 67
106 19 333 215 208 82 104 267 234 132 126 151 156 150 146 158 162 178 172 169 171 173 152 163 151 146 146 144 132 123 124 99 96 95 100 107 110 109 110 100 88 87 77 80 73 65 70 71 68
71 56 14 269 153 35 101 268 181 141 145 175 179 171 158 169 183 174 173 169 167 150 165 156 154 150 147 144 131 120 110 100 97 95 98 104 111 119 111 109 103 108 88 84 76 76 82 73 69
14 216 209 302 194 107 142 264 346 147 176 192 197 193 180 174 182 178 174 169 168 168 157 162 155 156 150 138 121 109 103 89 79 82 92 104 109 119 117 116 119 114 100 88 98 66 77 94 81
204 210 237 244 198 114 215 265 256 200 186 218 213 208 199 198 202 177 171 166 162 161 162 159 150 144 136 118 103 82 81 68 63 77 94 99 104 114 117 117 124 122 107 100 88 95 55 90 98
130 175 195 192 78 209 239 269 278 260 202 235 231 223 218 215 181 160 166 160 150 147 149 158 148 150 141 129 117 96 124 92 60 63 101 106 112 116 126 122 127 130 127 135 122 100 106 72 78
173 194 250 298 87 155 1 285 271 256 229 224 237 231 227 180 170 165 157 161 172 168 167 159 163 158 163 143 133 136 141 124 106 69 74 103 115 124 129 135 145 150 128 136 140 132 119 87 3
179 178 192 187 90 60 331 294 324 46 73 28 7 304 221 199 186 174 168 170 162 171 170 170 167 166 155 134 114 84 83 67 69 51 81 111 127 124 127 135 142 148 134 155 166 154 131 134 26
203 209 108 120 89 223 21 268 298 28 57 23 3 5 340 204 156 157 160 167 176 179 165 164 159 158 154 152 144 151 150 151 193 165 158 137 131 128 129 136 141 144 138 161 171 169 161 127 154
180 70 87 81 94 53 307 77 268 11 73 358 353 356 356 32 153 160 165 161 150 147 166 157 146 151 154 168 163 150 141 133 133 121 139 131 108 135 143 146 144 142 140 146 169 164 165 127 135
155 75 51 54 77 36 251 131 282 161 328 329 345 356 358 30 77 98 112 123 119 123 131 142 154 167 159 166 169 171 166 157 141 149 165 170 167 166 165 153 147 143 139 143 139 130 134 138 116
75 75 356 355 9 218 215 63 242 95 27 0 356 357 7 34 65 99 120 143 147 159 159 154 162 183 173 175 177 183 180 171 174 171 172 170 173 197 196 160 160 153 150 144 138 128 122 128 121
173 147 158 199 197 239 69 236 264 115 101 57 44 11 32 39 45 61 92 131 163 169 170 174 178 186 180 180 195 188 179 179 179 175 174 187 187 181 171 170 160 149 142 134 129 116 116 116 111
191 194 133 101 50 53 223 288 87 118 90 63 56 48 32 31 33 36 36 47 69 179 205 201 190 197 189 197 182 188 186 182 190 188 180 183 171 180 174 172 164 158 147 139 127 112 104 105 105
136 164 86 359 135 247 291 281 238 193 181 146 88 70 42 31 28 26 23 22 29 44 99 198 203 216 212 203 198 196 193 194 189 172 189 187 183 174 167 169 166 160 155 147 136 128 126 114 107
104 359 38 108 117 165 184 264 221 233 172 161 132 86 44 27 16 12 5 11 22 31 35 35 210 217 222 212 215 204 196 193 181 188 191 190 173 175 175 172 166 165 161 157 144 143 142 133 129
73 183 159 130 245 81 142 271 6 316 151 142 140 18 18 19 7 7 5 10 19 16 13 8 354 303 263 231 200 203 192 186 189 196 189 174 182 177 174 166 164 164 165 164 160 159 153 148 145